SCP
1 1 1 1 1 1 1 0 0 0 0 0 0 0 0 0 0 0 0 0 0 0 0 0 0 0 0 0 0 0 0 0 0 0 0 0 0 0 0 0 0 0 0
1 1 1 1 1 1 1 1 0 0 0 0 0 0 0 0 0 0 0 0 0 0 0 0 0 0 0 0 0 0 0 0 0 0 0 0 0 0 0 0 0 0 0
1 1 1 1 1 1 1 1 0 0 0 0 0 0 0 0 0 0 0 0 0 0 0 0 0 0 0 0 0 0 0 0 0 0 0 0 0 0 0 0 0 0 0
1 1 1 1 1 1 1 1 0 0 0 0 0 0 0 0 0 0 0 0 0 0 0 0 0 0 0 0 0 0 0 0 0 -0 0 0 0 0 0 0 0 0 0
1 1 1 1 1 1 1 1 0 0 0 0 0 0 0 0 0 0 0 0 0 0 0 0 0 0 0 0 0 0 0 0 0 0 0 0 0 0 0 0 0 0 0
1 1 1 1 1 1 1 1 0 0 0 0 0 0 0 0 0 0 0 0 0 0 0 0 0 0 0 0 0 0 0 0 0 0 0 0 0 0 0 0 0 0 0
1 1 1 1 1 1 1 1 0 0 0 0 0 0 0 0 0 0 0 0 0 0 0 0 0 0 -0 -0 -0 0 0 0 0 0 0 0 0 0 0 0 0 0 0
1 1 1 1 1 1 1 1 0 0 0 0 0 0 0 0 0 0 0 0 0 0 0 0 0 0 -0 -0 -0 0 0 0 0 0 0 0 0 0 0 0 0 0 0
1 1 1 1 1 1 1 1 0 0 0 0 0 0 0 0 0 0 0 0 0 0 0 0 0 0 -0 -0 0 0 -0 0 0 0 0 0 0 0 0 0 0 0 0
1 1 1 1 1 1 1 0 0 0 0 0 0 0 0 0 0 0 0 0 0 0 0 0 0 0 -0 -0 -0 -0 -0 0 0 0 0 0 0 0 0 0 0 0 0
1 1 1 1 1 1 0 0 0 0 0 0 0 0 0 0 0 0 0 0 0 0 0 0 0 0 -0 -0 -0 -0 -0 0 0 0 0 0 0 0 0 -0 -0 0 0
1 1 1 1 1 1 0 0 0 0 0 0 0 0 0 0 0 0 0 0 0 0 0 0 0 0 -0 -0 -0 0 0 0 0 0 0 0 0 0 0 0 0 0 0
1 1 1 1 1 1 1 0 0 0 0 0 0 0 0 0 0 0 0 0 0 0 0 0 0 0 0 0 0 0 0 0 0 0 0 0 -0 -0 0 0 0 0 0
1 1 1 1 1 1 1 0 0 0 0 0 0 0 0 0 0 0 0 0 0 0 0 0 0 0 0 0 0 0 0 0 0 0 0 0 0 0 0 0 0 0 0
1 1 1 1 1 1 1 0 0 0 0 0 0 0 0 0 0 0 0 0 0 0 0 0 0 0 0 0 0 0 0 0 0 0 0 0 0 0 0 0 0 0 0
1 1 1 1 1 0 0 0 0 0 0 0 0 0 0 0 0 0 0 0 0 0 0 0 0 0 0 0 0 0 0 0 0 0 0 0 0 0 0 0 0 0 0
0 0 1 1 1 0 0 0 0 0 0 0 0 0 0 0 0 0 0 0 0 0 0 0 0 0 0 0 0 0 0 0 0 0 0 0 0 0 0 0 0 0 0
0 0 0 1 1 0 0 0 0 0 0 0 0 0 0 0 0 0 0 0 0 0 0 0 0 0 0 0 0 0 0 0 0 0 0 0 0 0 0 0 0 0 0
0 0 0 1 1 1 1 1 0 0 0 0 0 0 0 0 0 0 0 0 0 0 0 0 0 0 0 0 0 0 0 0 0 0 0 0 0 0 0 0 0 0 0
0 0 0 1 1 1 1 1 1 0 0 0 0 0 0 0 0 0 0 0 0 0 0 0 0 0 0 0 0 0 0 0 0 0 0 0 0 0 0 0 0 0 0
0 0 0 0 1 1 1 1 1 1 1 1 0 0 0 0 0 0 0 0 0 0 0 0 0 0 0 0 0 0 0 0 0 0 0 0 0 0 0 0 0 0 0
0 0 0 0 0 0 1 1 1 1 1 1 0 0 0 0 0 0 0 0 0 0 0 0 0 0 0 0 0 0 0 0 0 0 0 0 0 0 0 0 0 0 0
0 0 0 0 0 0 0 1 1 1 1 1 0 0 0 0 0 0 0 0 0 0 0 0 0 0 0 0 0 0 0 0 0 0 0 0 0 0 0 0 0 0 0
0 0 0 0 0 0 0 0 0 0 0 0 0 0 0 0 0 0 0 0 0 0 0 0 0 0 0 0 0 0 0 0 0 0 0 0 0 0 0 0 0 0 0
0 0 0 0 0 0 0 0 0 0 0 0 0 0 0 0 0 0 0 0 0 0 0 0 0 0 0 0 0 0 0 0 0 0 0 0 0 0 0 0 0 0 0
0 0 0 0 0 0 0 0 0 0 0 0 0 0 1 1 0 0 0 0 0 0 0 0 0 0 0 0 0 0 0 0 0 0 0 0 0 0 0 0 0 0 0
Wind_Speed
15 19 21 20 19 18 18 17 17 17 18 18 18 18 18 17 17 17 17 17 17 17 17 17 16 16 16 16 16 16 16 16 16 16 15 15 16 16 15 12 11 14 16
19 21 21 20 19 18 18 17 17 17 17 18 19 19 18 18 18 18 18 17 17 17 17 17 16 16 16 16 16 16 16 15 15 13 11 13 13 14 15 15 15 12 15
20 21 22 19 19 18 18 17 17 17 17 17 19 19 19 18 18 18 18 18 17 17 17 17 16 16 15 15 15 15 15 14 12 7 6 11 13 14 15 14 14 15 15
20 20 20 20 19 19 18 18 17 17 17 17 18 18 18 18 18 18 18 17 17 17 16 16 15 15 14 14 14 14 14 12 8 2 8 10 11 13 14 14 14 14 14
18 18 19 20 20 19 18 18 17 17 17 17 17 17 18 18 18 18 18 17 16 16 15 15 15 14 14 13 13 13 12 11 5 7 10 10 10 12 13 13 13 13 13
18 18 19 18 19 19 18 18 17 17 17 17 17 17 17 18 18 18 17 16 16 15 15 15 14 14 13 13 13 12 11 6 5 9 9 9 9 11 12 12 12 12 12
17 17 20 18 19 19 18 17 17 17 17 17 17 17 17 18 18 17 17 16 15 15 15 14 14 13 13 12 12 11 9 2 7 8 8 9 10 11 11 11 11 11 11
16 16 18 18 17 17 17 17 16 16 17 17 17 17 17 17 17 17 16 16 15 14 14 14 13 13 12 12 11 10 6 2 7 8 8 8 9 9 10 10 10 10 10
16 16 16 17 17 15 15 15 15 15 15 16 16 16 15 15 16 16 15 15 14 14 13 13 13 12 12 11 10 9 6 2 5 5 6 6 6 8 8 8 8 8 8
15 15 16 16 17 16 15 14 13 13 13 13 14 13 13 13 13 13 13 13 13 13 12 12 12 11 11 10 9 8 5 3 5 5 4 6 5 6 7 6 6 7 7
14 14 15 16 16 15 15 15 14 13 12 13 13 13 12 12 13 12 13 11 11 12 11 11 11 10 9 8 7 6 4 2 5 4 4 5 4 4 5 5 5 5 5
16 15 13 14 15 15 12 13 12 11 12 12 12 14 10 10 9 10 12 10 10 10 10 10 9 9 6 6 7 5 2 3 3 3 4 3 2 2 3 3 3 3 3
15 15 14 13 14 14 11 10 8 7 9 10 12 12 9 9 8 8 7 8 9 9 8 9 8 5 4 3 3 3 2 2 1 2 4 2 0 1 1 1 1 2 2
13 15 14 14 13 13 12 10 9 8 7 7 10 12 9 6 7 8 6 7 7 6 6 6 4 6 5 5 4 3 3 1 1 1 3 1 1 2 1 1 2 2 2
12 14 15 14 14 12 12 9 9 9 8 9 8 10 10 7 8 8 6 6 6 5 6 6 5 6 5 5 4 3 2 2 1 1 2 3 2 3 3 3 3 3 3
11 11 14 15 13 13 11 10 9 9 8 9 8 10 11 8 7 7 7 6 6 6 5 5 6 5 4 3 3 3 3 2 3 2 2 3 4 3 4 5 5 4 4
11 11 13 15 14 13 12 12 9 9 9 8 8 10 10 9 9 7 7 6 6 6 6 5 6 5 4 3 4 3 3 3 3 3 3 2 2 4 4 5 5 4 4
10 11 11 11 14 13 11 11 9 9 10 8 8 9 11 11 10 8 7 6 7 6 6 5 5 5 4 4 3 3 3 2 4 3 3 2 2 2 2 2 3 3 3
10 11 11 11 13 12 10 9 9 9 9 8 8 8 10 11 11 8 7 6 7 6 5 5 5 5 4 4 3 2 3 3 3 3 3 3 2 2 2 2 1 2 2
9 10 10 10 11 11 9 7 7 9 8 8 8 9 11 10 11 9 7 8 7 6 6 6 6 5 4 3 3 3 3 2 3 3 3 3 2 2 2 2 2 2 0
8 9 9 9 9 8 7 7 7 8 8 7 8 10 11 11 11 9 7 8 7 7 7 7 6 6 5 4 3 3 3 3 2 2 2 2 2 1 1 1 1 1 1
7 9 10 10 9 9 7 7 6 7 7 7 7 9 11 11 11 9 9 7 7 6 8 8 7 5 4 4 4 3 3 4 3 2 1 1 1 1 1 0 0 1 1
6 8 9 10 11 11 10 7 5 5 5 6 8 8 10 11 11 10 10 9 8 8 7 8 8 8 6 5 5 4 3 3 2 3 3 2 2 1 1 0 0 1 1
6 6 7 8 10 10 10 9 10 8 8 9 7 7 9 10 11 11 10 10 9 7 8 8 8 7 7 6 5 4 4 2 3 2 3 3 2 1 1 1 1 1 1
5 5 6 7 8 9 9 10 10 9 7 6 7 9 9 9 10 10 10 9 9 8 8 8 8 8 7 6 5 4 4 4 5 4 4 3 3 2 1 1 1 1 1
4 5 5 7 7 8 10 10 11 11 9 9 9 9 8 7 8 10 9 9 9 8 8 8 8 8 7 6 5 4 4 4 4 5 5 4 3 2 2 1 1 1 0
Wind_Direction
161 156 153 154 152 150 148 147 146 146 146 146 144 143 140 137 134 132 129 126 123 120 116 112 108 104 100 96 93 90 88 86 81 78 76 73 74 73 68 61 71 72 67
155 154 153 154 153 151 149 147 145 145 146 146 145 144 142 139 136 133 132 129 125 122 118 115 111 107 104 100 96 92 90 89 86 84 90 85 74 72 70 63 60 70 69
154 153 154 154 153 151 149 147 146 146 147 147 146 145 144 141 138 136 134 131 127 122 118 115 111 108 106 103 99 96 93 91 88 87 105 91 83 75 75 73 72 72 70
154 155 157 152 153 152 150 149 149 150 149 148 147 146 145 142 140 138 135 131 126 121 118 114 112 110 108 106 103 100 96 92 86 84 86 83 83 77 75 73 72 72 72
156 157 151 152 153 153 152 152 152 152 151 148 147 147 145 143 141 139 134 129 123 120 119 116 114 113 111 108 106 103 99 95 93 87 83 82 81 77 74 73 72 72 73
157 156 150 154 153 153 154 154 153 153 151 148 147 147 145 144 141 137 131 126 123 122 121 118 116 114 112 111 108 105 102 109 122 88 86 84 83 80 78 75 75 74 74
158 155 153 155 154 155 155 155 156 155 152 149 149 148 147 145 140 135 131 129 128 127 125 120 117 116 113 112 110 107 102 76 90 90 85 82 82 82 82 80 77 77 75
159 155 155 154 155 156 156 156 156 156 154 152 151 149 147 145 140 137 135 133 132 131 127 123 120 118 117 114 111 110 105 91 97 90 86 83 77 83 83 82 81 79 77
162 157 158 159 159 156 153 153 155 155 154 153 151 146 141 140 139 139 138 137 135 132 128 125 123 121 118 117 114 109 95 44 97 90 90 86 80 85 86 85 84 82 79
166 161 161 163 163 162 158 152 151 150 149 146 140 134 132 135 139 139 142 137 135 132 129 127 125 123 121 119 117 114 124 193 103 103 94 90 85 88 91 91 90 88 85
170 165 164 166 165 165 162 154 153 147 143 141 136 131 142 151 150 152 141 134 134 133 131 130 127 124 123 122 119 132 187 128 104 90 91 88 96 93 95 97 98 95 93
174 167 167 168 166 165 160 161 164 160 158 162 155 156 161 157 154 150 131 132 132 130 131 128 127 140 166 145 141 187 163 133 114 106 95 89 106 104 101 109 112 111 109
178 172 173 168 169 167 164 165 164 163 164 165 162 163 160 154 151 154 152 147 148 153 150 143 161 167 168 149 159 162 135 122 116 112 107 91 64 141 132 138 142 148 147
183 177 174 171 170 173 168 166 166 164 166 164 167 166 164 162 165 165 167 165 166 170 163 172 174 166 169 167 173 163 154 155 141 117 107 116 289 256 234 233 227 218 206
188 180 173 175 174 173 171 167 170 169 170 168 169 173 172 170 172 168 169 171 175 172 173 177 179 171 178 178 178 183 189 194 190 204 156 163 256 275 264 249 248 241 229
189 181 178 178 178 175 175 173 172 172 172 171 173 178 179 176 175 173 173 176 178 180 179 183 182 181 187 193 195 202 215 220 229 238 250 186 201 248 268 262 254 244 241
194 181 186 181 179 180 179 177 173 173 175 176 175 180 183 181 179 178 179 180 180 181 181 185 182 194 193 200 212 220 232 240 240 242 245 255 219 205 243 261 262 256 251
202 186 189 182 179 181 181 179 178 178 179 180 178 181 187 186 185 183 185 186 181 180 186 187 191 195 198 210 218 216 231 238 251 254 249 247 256 245 201 223 281 279 270
207 196 188 187 181 182 183 184 183 180 183 183 182 184 189 190 189 190 192 189 184 186 192 191 201 206 206 213 220 233 244 245 253 252 255 252 248 253 261 154 205 311 310
206 198 189 192 183 182 183 183 184 183 185 186 187 189 189 191 192 192 191 192 187 190 194 197 200 207 216 214 213 233 248 250 251 251 254 245 232 234 247 245 213 170 186
197 190 189 194 185 178 181 180 187 186 186 189 192 192 193 194 192 192 190 191 191 196 200 201 201 205 209 209 222 231 223 220 225 232 240 236 205 209 221 226 250 262 176
198 190 190 194 192 187 191 185 191 187 185 188 189 192 195 194 193 194 195 192 192 196 201 202 201 206 203 206 223 237 231 202 183 185 195 211 212 186 184 244 273 292 302
199 198 196 194 198 195 192 184 175 184 177 184 191 192 195 195 193 192 195 196 195 197 201 203 204 211 211 204 223 235 241 236 184 182 181 194 195 196 192 178 303 317 318
208 208 200 199 204 201 192 190 186 198 198 198 193 192 192 196 197 195 196 198 198 200 203 204 206 211 216 211 207 231 258 284 254 228 184 182 188 220 209 191 229 258 304
208 206 201 196 201 200 196 195 197 208 208 198 192 193 193 194 198 198 198 198 199 201 202 203 205 209 214 217 208 198 214 232 245 257 249 206 203 206 219 244 250 266 323
212 203 199 196 205 203 203 198 199 205 206 201 197 196 196 195 196 197 198 199 201 201 199 199 205 208 211 214 213 206 204 209 212 225 246 250 249 213 213 227 234 237 290